Tracking 20626 objects as of 8-Apr-2020
HD Live streaming from Space Station
objects crossing your sky now

ORBCOMM FM 32

Track ORBCOMM FM 32 now!
10-day predictions
ORBCOMM FM 32 is classified as:


NORAD ID: 25982
Int'l Code: 1999-065C
Perigee: 786.6 km
Apogee: 797.3 km
Inclination: 45.0 °
Period: 100.6 minutes
Semi major axis: 7162 km
RCS: 0.8421 m2 (medium)
Launch date: December 4, 1999
Source: ORBCOMM (ORB)
Launch site: AIR FORCE EASTERN TEST RANGE (AFETR)
aabbcc
Your satellite tracking list
Your tracking list is empty




NASA's NSSDC Master Catalog

Two Line Element Set (TLE):
1 25982U 99065C   20099.47091072 -.00000080 +00000-0 +22126-4 0  9991
2 25982 045.0196 015.3414 0007439 319.5360 040.4932 14.32071983062751
Source of the keplerian elements: AFSPC